Time,TemperatureF,DewpointF,PressureIn,WindDirection,WindDirectionDegrees,WindSpeedMPH,WindSpeedGustMPH,Humidity,HourlyPrecipIn,Conditions,Clouds,dailyrainin,SolarRadiationWatts/m^2,SoftwareType,DateUTC
2013-09-11 00:06:00,70.1,67.0,30.07,SSW,194,3.0,8.0,91,0.00,,,0.00,0,weatherlink.com 1.10,2013-09-11 04:06:00,
2013-09-11 00:21:00,69.6,67.0,30.07,SSW,198,6.0,7.0,91,0.00,,,0.00,0,weatherlink.com 1.10,2013-09-11 04:21:00,
2013-09-11 00:36:00,69.1,66.0,30.07,SSW,198,0.0,7.0,91,0.00,,,0.00,0,weatherlink.com 1.10,2013-09-11 04:36:00,
2013-09-11 00:51:00,68.7,66.0,30.07,SSW,198,0.0,7.0,92,0.00,,,0.00,0,weatherlink.com 1.10,2013-09-11 04:51:00,
2013-09-11 01:06:00,68.5,67.0,30.06,SSW,201,2.0,8.0,93,0.00,,,0.00,0,weatherlink.com 1.10,2013-09-11 05:06:00,
2013-09-11 01:21:00,68.5,67.0,30.06,SSW,205,4.0,7.0,93,0.00,,,0.00,0,weatherlink.com 1.10,2013-09-11 05:21:00,
2013-09-11 01:36:00,68.6,67.0,30.06,SSW,210,0.0,6.0,94,0.00,,,0.00,0,weatherlink.com 1.10,2013-09-11 05:36:00,
2013-09-11 01:51:00,68.6,67.0,30.06,SSW,213,3.0,6.0,94,0.00,,,0.00,0,weatherlink.com 1.10,2013-09-11 05:51:00,
2013-09-11 02:06:00,68.3,67.0,30.05,SW,215,1.0,6.0,94,0.00,,,0.00,0,weatherlink.com 1.10,2013-09-11 06:06:00,
2013-09-11 02:21:00,68.3,67.0,30.05,SW,215,0.0,6.0,94,0.00,,,0.00,0,weatherlink.com 1.10,2013-09-11 06:21:00,
2013-09-11 02:36:00,68.4,67.0,30.05,SW,215,1.0,5.0,95,0.00,,,0.00,0,weatherlink.com 1.10,2013-09-11 06:36:00,
2013-09-11 02:51:00,69.0,68.0,30.05,SW,215,5.0,6.0,95,0.00,,,0.00,0,weatherlink.com 1.10,2013-09-11 06:51:00,
2013-09-11 03:11:00,69.3,68.0,30.04,SW,215,0.0,3.0,95,0.00,,,0.00,0,weatherlink.com 1.10,2013-09-11 07:11:00,
2013-09-11 03:21:00,69.3,68.0,30.04,SW,215,0.0,4.0,95,0.00,,,0.00,0,weatherlink.com 1.10,2013-09-11 07:21:00,
2013-09-11 03:36:00,69.5,68.0,30.05,SW,215,0.0,7.0,96,0.00,,,0.00,0,weatherlink.com 1.10,2013-09-11 07:36:00,
2013-09-11 03:51:00,69.8,68.0,30.04,SW,225,3.0,9.0,95,0.00,,,0.00,0,weatherlink.com 1.10,2013-09-11 07:51:00,
2013-09-11 04:06:00,70.1,69.0,30.04,SW,232,4.0,10.0,95,0.00,,,0.00,0,weatherlink.com 1.10,2013-09-11 08:06:00,
2013-09-11 04:21:00,70.1,69.0,30.04,SW,234,9.0,10.0,95,0.00,,,0.00,0,weatherlink.com 1.10,2013-09-11 08:21:00,
2013-09-11 04:36:00,70.0,69.0,30.04,SW,236,8.0,10.0,95,0.00,,,0.00,0,weatherlink.com 1.10,2013-09-11 08:36:00,
2013-09-11 04:51:00,70.2,69.0,30.04,WSW,238,7.0,9.0,96,0.00,,,0.00,0,weatherlink.com 1.10,2013-09-11 08:51:00,
2013-09-11 05:06:00,70.2,69.0,30.03,SW,234,8.0,10.0,95,0.00,,,0.00,0,weatherlink.com 1.10,2013-09-11 09:06:00,
2013-09-11 05:21:00,70.1,69.0,30.04,SW,236,8.0,10.0,95,0.00,,,0.00,0,weatherlink.com 1.10,2013-09-11 09:21:00,
2013-09-11 05:36:00,70.1,69.0,30.04,WSW,238,4.0,10.0,95,0.00,,,0.00,0,weatherlink.com 1.10,2013-09-11 09:36:00,
2013-09-11 05:51:00,69.9,69.0,30.03,WSW,240,5.0,9.0,95,0.00,,,0.00,0,weatherlink.com 1.10,2013-09-11 09:51:00,
2013-09-11 06:06:00,69.7,69.0,30.04,SW,236,8.0,11.0,96,0.00,,,0.00,0,weatherlink.com 1.10,2013-09-11 10:06:00,
2013-09-11 06:21:00,69.7,69.0,30.04,SW,231,9.0,11.0,96,0.00,,,0.00,0,weatherlink.com 1.10,2013-09-11 10:21:00,
2013-09-11 06:36:00,69.8,69.0,30.04,WSW,237,5.0,10.0,96,0.00,,,0.00,12,weatherlink.com 1.10,2013-09-11 10:36:00,
2013-09-11 06:51:00,69.9,69.0,30.05,WSW,239,5.0,9.0,96,0.00,,,0.00,23,weatherlink.com 1.10,2013-09-11 10:51:00,
2013-09-11 07:06:00,70.2,69.0,30.05,SW,233,9.0,10.0,96,0.00,,,0.00,37,weatherlink.com 1.10,2013-09-11 11:06:00,
2013-09-11 07:21:00,70.5,69.0,30.04,SW,236,5.0,10.0,96,0.00,,,0.00,49,weatherlink.com 1.10,2013-09-11 11:21:00,
2013-09-11 07:36:00,70.9,70.0,30.05,SW,236,2.0,11.0,96,0.00,,,0.00,62,weatherlink.com 1.10,2013-09-11 11:36:00,
2013-09-11 07:51:00,71.4,70.0,30.05,SW,236,10.0,10.0,96,0.00,,,0.00,72,weatherlink.com 1.10,2013-09-11 11:51:00,
2013-09-11 08:06:00,72.1,71.0,30.04,WSW,237,0.0,9.0,96,0.00,,,0.00,81,weatherlink.com 1.10,2013-09-11 12:06:00,
2013-09-11 08:21:00,72.7,71.0,30.05,SW,231,8.0,10.0,95,0.00,,,0.00,90,weatherlink.com 1.10,2013-09-11 12:21:00,
2013-09-11 08:37:00,73.2,71.0,30.05,SW,236,6.0,10.0,94,0.00,,,0.00,190,weatherlink.com 1.10,2013-09-11 12:37:00,
2013-09-11 08:52:00,74.0,72.0,30.06,WSW,238,1.0,10.0,93,0.00,,,0.00,334,weatherlink.com 1.10,2013-09-11 12:52:00,
2013-09-11 09:07:00,75.2,73.0,30.06,SW,236,10.0,12.0,91,0.00,,,0.00,380,weatherlink.com 1.10,2013-09-11 13:07:00,
2013-09-11 09:22:00,76.7,73.0,30.06,SW,222,9.0,13.0,88,0.00,,,0.00,424,weatherlink.com 1.10,2013-09-11 13:22:00,
2013-09-11 09:37:00,78.1,73.0,30.05,WSW,248,2.0,11.0,85,0.00,,,0.00,461,weatherlink.com 1.10,2013-09-11 13:37:00,
2013-09-11 09:52:00,79.7,75.0,30.05,WSW,254,6.0,11.0,85,0.00,,,0.00,499,weatherlink.com 1.10,2013-09-11 13:52:00,
2013-09-11 10:07:00,83.0,76.0,30.05,WSW,243,8.0,12.0,80,0.00,,,0.00,538,weatherlink.com 1.10,2013-09-11 14:07:00,
2013-09-11 10:22:00,85.9,77.0,30.04,WSW,251,3.0,10.0,75,0.00,,,0.00,650,weatherlink.com 1.10,2013-09-11 14:22:00,
2013-09-11 10:37:00,87.9,78.0,30.04,West,263,5.0,13.0,73,0.00,,,0.00,603,weatherlink.com 1.10,2013-09-11 14:37:00,
2013-09-11 10:52:00,88.2,77.0,30.04,SW,231,6.0,12.0,70,0.00,,,0.00,629,weatherlink.com 1.10,2013-09-11 14:52:00,
2013-09-11 11:07:00,87.7,77.0,30.04,SW,225,4.0,12.0,70,0.00,,,0.00,654,weatherlink.com 1.10,2013-09-11 15:07:00,
2013-09-11 11:22:00,87.5,77.0,30.03,SW,215,8.0,12.0,71,0.00,,,0.00,680,weatherlink.com 1.10,2013-09-11 15:22:00,
2013-09-11 11:37:00,87.1,77.0,30.03,SW,222,5.0,11.0,71,0.00,,,0.00,696,weatherlink.com 1.10,2013-09-11 15:37:00,
2013-09-11 11:52:00,87.9,77.0,30.02,SW,221,7.0,9.0,71,0.00,,,0.00,703,weatherlink.com 1.10,2013-09-11 15:52:00,
2013-09-11 12:07:00,89.7,78.0,30.02,WSW,245,5.0,13.0,68,0.00,,,0.00,712,weatherlink.com 1.10,2013-09-11 16:07:00,
2013-09-11 12:22:00,90.3,78.0,30.02,SW,236,9.0,13.0,67,0.00,,,0.00,717,weatherlink.com 1.10,2013-09-11 16:22:00,
2013-09-11 12:37:00,91.2,78.0,30.01,WSW,248,8.0,12.0,65,0.00,,,0.00,717,weatherlink.com 1.10,2013-09-11 16:37:00,
2013-09-11 12:53:00,92.4,79.0,30.01,WSW,257,7.0,10.0,64,0.00,,,0.00,728,weatherlink.com 1.10,2013-09-11 16:53:00,
2013-09-11 13:08:00,93.7,77.0,30.01,West,269,7.0,13.0,58,0.00,,,0.00,708,weatherlink.com 1.10,2013-09-11 17:08:00,
2013-09-11 13:23:00,94.7,76.0,30.00,SW,236,3.0,14.0,54,0.00,,,0.00,708,weatherlink.com 1.10,2013-09-11 17:23:00,
2013-09-11 13:38:00,94.6,77.0,30.00,West,261,3.0,10.0,56,0.00,,,0.00,499,weatherlink.com 1.10,2013-09-11 17:38:00,
2013-09-11 13:53:00,95.4,75.0,29.99,WNW,289,8.0,14.0,51,0.00,,,0.00,69,weatherlink.com 1.10,2013-09-11 17:53:00,
2013-09-11 14:08:00,94.2,75.0,29.98,WSW,237,10.0,11.0,54,0.00,,,0.00,69,weatherlink.com 1.10,2013-09-11 18:08:00,
2013-09-11 14:23:00,93.7,75.0,29.98,SW,231,8.0,10.0,54,0.00,,,0.00,88,weatherlink.com 1.10,2013-09-11 18:23:00,
2013-09-11 14:38:00,93.8,74.0,29.97,SW,234,6.0,12.0,53,0.00,,,0.00,84,weatherlink.com 1.10,2013-09-11 18:38:00,
2013-09-11 14:53:00,94.2,75.0,29.97,WSW,238,6.0,12.0,53,0.00,,,0.00,60,weatherlink.com 1.10,2013-09-11 18:53:00,
2013-09-11 15:08:00,94.1,74.0,29.97,SW,234,4.0,10.0,53,0.00,,,0.00,53,weatherlink.com 1.10,2013-09-11 19:08:00,
2013-09-11 15:23:00,94.4,74.0,29.97,SW,231,7.0,16.0,52,0.00,,,0.00,51,weatherlink.com 1.10,2013-09-11 19:23:00,
2013-09-11 15:38:00,93.8,74.0,29.96,SW,232,6.0,15.0,52,0.00,,,0.00,47,weatherlink.com 1.10,2013-09-11 19:38:00,
2013-09-11 15:53:00,93.2,73.0,29.95,WSW,243,5.0,15.0,52,0.00,,,0.00,46,weatherlink.com 1.10,2013-09-11 19:53:00,
2013-09-11 16:08:00,92.9,73.0,29.95,WSW,237,12.0,16.0,52,0.00,,,0.00,42,weatherlink.com 1.10,2013-09-11 20:08:00,
2013-09-11 16:23:00,93.1,71.0,29.95,WSW,254,10.0,16.0,49,0.00,,,0.00,39,weatherlink.com 1.10,2013-09-11 20:23:00,
2013-09-11 16:38:00,93.5,72.0,29.94,SW,229,10.0,15.0,50,0.00,,,0.00,37,weatherlink.com 1.10,2013-09-11 20:38:00,
2013-09-11 16:53:00,92.9,72.0,29.94,SW,216,8.0,13.0,50,0.00,,,0.00,33,weatherlink.com 1.10,2013-09-11 20:53:00,
2013-09-11 17:08:00,91.2,73.0,29.94,SW,235,5.0,13.0,55,0.00,,,0.00,33,weatherlink.com 1.10,2013-09-11 21:08:00,
2013-09-11 17:23:00,90.5,73.0,29.94,SW,234,9.0,15.0,56,0.00,,,0.00,32,weatherlink.com 1.10,2013-09-11 21:23:00,
2013-09-11 17:38:00,89.9,73.0,29.93,SW,232,8.0,11.0,58,0.00,,,0.00,28,weatherlink.com 1.10,2013-09-11 21:38:00,
2013-09-11 17:53:00,88.8,74.0,29.93,WSW,242,9.0,14.0,61,0.00,,,0.00,25,weatherlink.com 1.10,2013-09-11 21:53:00,
2013-09-11 18:08:00,88.9,74.0,29.93,SW,227,8.0,15.0,62,0.00,,,0.00,19,weatherlink.com 1.10,2013-09-11 22:08:00,
2013-09-11 18:23:00,89.1,74.0,29.93,SW,227,8.0,14.0,62,0.00,,,0.00,11,weatherlink.com 1.10,2013-09-11 22:23:00,
2013-09-11 18:38:00,87.2,75.0,29.93,SW,227,6.0,11.0,67,0.00,,,0.00,5,weatherlink.com 1.10,2013-09-11 22:38:00,
2013-09-11 18:53:00,85.2,76.0,29.94,SW,234,12.0,14.0,73,0.00,,,0.00,0,weatherlink.com 1.10,2013-09-11 22:53:00,
2013-09-11 19:08:00,84.2,76.0,29.95,SW,233,9.0,15.0,76,0.00,,,0.00,0,weatherlink.com 1.10,2013-09-11 23:08:00,
2013-09-11 19:23:00,83.0,75.0,29.96,SW,235,8.0,12.0,77,0.00,,,0.00,0,weatherlink.com 1.10,2013-09-11 23:23:00,
2013-09-11 19:38:00,82.1,75.0,29.96,WSW,244,5.0,13.0,80,0.00,,,0.00,0,weatherlink.com 1.10,2013-09-11 23:38:00,
2013-09-11 19:53:00,81.6,75.0,29.97,SW,227,8.0,11.0,81,0.00,,,0.00,0,weatherlink.com 1.10,2013-09-11 23:53:00,
2013-09-11 20:08:00,80.8,75.0,29.97,WSW,237,9.0,10.0,82,0.00,,,0.00,0,weatherlink.com 1.10,2013-09-12 00:08:00,
2013-09-11 20:23:00,80.5,75.0,29.98,WSW,238,6.0,10.0,83,0.00,,,0.00,0,weatherlink.com 1.10,2013-09-12 00:23:00,
2013-09-11 20:38:00,80.2,75.0,29.98,WSW,248,5.0,12.0,84,0.00,,,0.00,0,weatherlink.com 1.10,2013-09-12 00:38:00,
2013-09-11 20:53:00,80.2,75.0,29.98,SW,233,4.0,11.0,83,0.00,,,0.00,0,weatherlink.com 1.10,2013-09-12 00:53:00,
2013-09-11 21:08:00,79.7,74.0,29.97,WSW,255,9.0,12.0,83,0.00,,,0.00,0,weatherlink.com 1.10,2013-09-12 01:08:00,
2013-09-11 21:23:00,79.3,74.0,29.98,WSW,240,7.0,12.0,83,0.00,,,0.00,0,weatherlink.com 1.10,2013-09-12 01:23:00,
2013-09-11 21:38:00,78.9,73.0,29.97,SW,234,5.0,13.0,83,0.00,,,0.00,0,weatherlink.com 1.10,2013-09-12 01:38:00,
2013-09-11 21:53:00,79.2,73.0,29.97,WSW,244,5.0,16.0,82,0.00,,,0.00,0,weatherlink.com 1.10,2013-09-12 01:53:00,
2013-09-11 22:08:00,79.5,73.0,29.97,SW,236,9.0,13.0,81,0.00,,,0.00,0,weatherlink.com 1.10,2013-09-12 02:08:00,
2013-09-11 22:23:00,79.4,73.0,29.98,WSW,241,6.0,10.0,80,0.00,,,0.00,0,weatherlink.com 1.10,2013-09-12 02:23:00,
2013-09-11 22:38:00,79.8,73.0,29.98,West,259,7.0,13.0,79,0.00,,,0.00,0,weatherlink.com 1.10,2013-09-12 02:38:00,
2013-09-11 22:53:00,80.0,73.0,30.00,West,259,4.0,15.0,79,0.00,,,0.00,0,weatherlink.com 1.10,2013-09-12 02:53:00,
2013-09-11 23:08:00,80.6,73.0,29.99,West,263,11.0,20.0,78,0.00,,,0.00,0,weatherlink.com 1.10,2013-09-12 03:08:00,
2013-09-11 23:23:00,80.8,73.0,29.98,NW,305,7.0,10.0,78,0.00,,,0.00,0,weatherlink.com 1.10,2013-09-12 03:23:00,
2013-09-11 23:38:00,80.9,71.0,29.98,NNW,344,4.0,10.0,72,0.00,,,0.00,0,weatherlink.com 1.10,2013-09-12 03:38:00,
2013-09-11 23:53:00,81.2,68.0,29.97,NW,305,5.0,12.0,65,0.00,,,0.00,0,weatherlink.com 1.10,2013-09-12 03:53:00,